Вернуться в каталог

STARLINK-32810

АктивенСвязьVLEO
NORAD 63037·PAYLOAD·🇺🇸 United States

Запущен Feb 18, 2025 с Cape Canaveral Space Force Station

Loading…

Ближайшие Пролёты (ближайшие 24 часа)

TLE

СвежийSource: CelesTrak SupGP

Эпоха: Sep 14, 2026, 20:41 UTC

1 63037C 25034J   26257.86229167 -.00022869  00000+0 -67576-3 0  2575
2 63037  53.1565  96.2260 0001269  91.2079 329.0352 15.34397276    19

Отслеживайте STARLINK-32810 в реальном времени с AllMySat

Download on the App Store